sat.trackr.live / text

‹ back to catalog

STARLINK-1655

NORAD 47623 · 2021-012D

PAYLOAD ACTIVE UNKNOWN

§ Identity

Operator
Country
US
Launch date
2021-02-16
Launch site
AFETR
Launch vehicle
Mass (kg)
RCS (m²)

Purposes: comms

External: N2YO · Heavens-Above · Gunter

§ Orbital elements

Epoch: 2026-06-29T18:32:33.874656Z

Period
87.46 min
Inclination
53.0094°
Eccentricity
0.0009388
Mean motion
16.46507855 rev/d
Perigee alt
142.4 km
Apogee alt
154.7 km
Semi-major
6,526.7 km
B*
2.4119e-4
RAAN
122.3884°
Arg perigee
238.2608°
Mean anomaly
121.7526°
Rev number
29,920

§ Raw data

STARLINK-16551 47623U 21012D   26180.77261429  .12302012  12461-4  24119-3 0  99922 47623  53.0094 122.3884 0009388 238.2608 121.7526 16.46507855299203

JSON: /api/v1/satellites/47623 · /tle

For live sub-satellite position, see the globe view (requires WebGL).

§ Visibility from observer

Set your observer location to see the next 7 days of passes ≥ 10°. The values pass through the URL so the page stays shareable.

No JS? Fill the form by hand. The geolocation button needs JavaScript.